Location: Newark
(39.6867°N, 100.6772°W)
Time: 17:47:28
(UTC+00:00)

Vanguard 1 - Pass Details

Date: 16 October 2019
Orbit: 652 x 3831 km, 34.2° (Epoch: 12 November)

Event Time Altitude Azimuth Distance (km) Brightness Sun altitude
Rises 23:34:34 0° 185° (S) 3,677 13.3 4.3°
Reaches altitude 10° 23:38:16 10° 161° (SSE) 3,140 12.6 3.7°
Maximum altitude 23:42:22 15° 129° (SE) 3,257 12.4 2.9°
Drops below altitude 10° 23:47:40 10° 99° (E) 4,270 12.8 1.9°
Sets 23:54:22 0° 80° (E) 6,035 13.4 0.6°
